| time (UTC) | temp F | wind direction | speed knots | gust knots | rain 1hr in | rain 24hr in | rain mn in | humidity % | barometer mb |
| 20260502221542 | 50 | 349 | 2.6 | 4.3 | 0.00 | 0.26 | 0.26 | 98 | 1011.1 |
| 20260502220052 | 50 | 350 | 3.5 | 5.2 | 0.00 | 0.26 | 0.26 | 98 | 1010.8 |
| 20260502214537 | 50 | 355 | 3.5 | 5.2 | 0.00 | 0.26 | 0.26 | 98 | 1010.9 |
| 20260502213045 | 50 | 360 | 4.3 | 7.0 | 0.00 | 0.26 | 0.26 | 98 | 1010.6 |
| 20260502211544 | 51 | 360 | 4.3 | 7.0 | 0.00 | 0.26 | 0.26 | 98 | 1010.6 |
| 20260502210043 | 51 | 350 | 4.3 | 6.1 | 0.00 | 0.26 | 0.26 | 98 | 1010.7 |
| 20260502204540 | 51 | 355 | 2.6 | 4.3 | 0.00 | 0.26 | 0.26 | 97 | 1010.9 |
| 20260502203049 | 51 | 336 | 2.6 | 4.3 | 0.00 | 0.25 | 0.25 | 97 | 1011.0 |
| 20260502201541 | 51 | 336 | 2.6 | 4.3 | 0.00 | 0.25 | 0.25 | 97 | 1011.0 |
| 20260502200045 | 51 | 323 | 1.7 | 3.5 | 0.01 | 0.25 | 0.25 | 97 | 1011.0 |
| 20260502194549 | 51 | 323 | 1.7 | 4.3 | 0.02 | 0.25 | 0.25 | 97 | 1011.0 |
| 20260502193041 | 52 | 322 | 1.7 | 3.5 | 0.03 | 0.25 | 0.25 | 97 | 1011.1 |
| 20260502191542 | 52 | 321 | 2.6 | 5.2 | 0.03 | 0.25 | 0.25 | 97 | 1011.2 |
| 20260502190039 | 52 | 350 | 2.6 | 4.3 | 0.04 | 0.24 | 0.24 | 97 | 1011.4 |
| 20260502184540 | 52 | 33 | 1.7 | 3.5 | 0.05 | 0.23 | 0.23 | 96 | 1011.4 |
| 20260502183053 | 52 | 33 | 0.9 | 3.5 | 0.05 | 0.22 | 0.22 | 96 | 1011.6 |
| 20260502181544 | 52 | 86 | 1.7 | 2.6 | 0.06 | 0.21 | 0.21 | 96 | 1011.6 |
| 20260502163102 | 53 | 164 | 1.7 | 5.2 | 0.07 | 0.09 | 0.09 | 93 | 1012.6 |
| 20260502161551 | 53 | 164 | 2.6 | 4.3 | 0.07 | 0.07 | 0.07 | 92 | 1012.7 |
| 20260502151543 | 54 | 0 | 0.0 | 0.9 | 0.00 | 0.00 | 0.00 | 88 | 1013.2 |
| 20260502123050 | 57 | 118 | 1.7 | 7.0 | 0.00 | 0.00 | 0.00 | 83 | 1014.6 |
| 20260502121546 | 57 | 117 | 4.3 | 7.8 | 0.00 | 0.00 | 0.00 | 83 | 1015.0 |
| 20260502114545 | 57 | 94 | 2.6 | 8.7 | 0.00 | 0.00 | 0.00 | 84 | 1015.3 |
| 20260502113048 | 55 | 143 | 5.2 | 10.4 | 0.00 | 0.00 | 0.00 | 87 | 1015.6 |
| 20260502111548 | 56 | 140 | 7.8 | 11.3 | 0.00 | 0.00 | 0.00 | 88 | 1015.7 |
| 20260502110044 | 55 | 132 | 7.0 | 10.4 | 0.00 | 0.00 | 0.00 | 89 | 1016.1 |
| 20260502104542 | 57 | 130 | 8.7 | 11.3 | 0.00 | 0.00 | 0.00 | 84 | 1016.3 |
| 20260502103039 | 55 | 137 | 6.1 | 11.3 | 0.00 | 0.00 | 0.00 | 89 | 1016.5 |
| 20260502101538 | 55 | 134 | 6.1 | 11.3 | 0.00 | 0.00 | 0.00 | 88 | 1016.3 |
| 20260502070052 | 51 | 127 | 4.3 | 9.6 | 0.00 | 0.00 | 0.00 | 97 | 1017.0 |
| 20260502064549 | 51 | 136 | 6.1 | 7.8 | 0.00 | 0.00 | 0.00 | 97 | 1017.1 |
| 20260502063044 | 51 | 143 | 4.3 | 7.0 | 0.00 | 0.00 | 0.00 | 97 | 1017.2 |
| 20260502061538 | 51 | 135 | 4.3 | 7.0 | 0.00 | 0.00 | 0.00 | 97 | 1017.2 |
| 20260502060038 | 51 | 154 | 2.6 | 6.1 | 0.00 | 0.00 | 0.00 | 97 | 1017.4 |
| 20260502054539 | 51 | 152 | 1.7 | 7.0 | 0.00 | 0.00 | 0.00 | 97 | 1017.5 |
| 20260502053037 | 51 | 158 | 5.2 | 9.6 | 0.00 | 0.00 | 0.00 | 97 | 1017.5 |
| 20260502051544 | 50 | 96 | 1.7 | 5.2 | 0.00 | 0.00 | 0.00 | 97 | 1017.5 |
| 20260502050043 | 50 | 82 | 0.9 | 3.5 | 0.00 | 0.00 | 0.00 | 97 | 1017.4 |
| 20260502044547 | 50 | 80 | 0.9 | 3.5 | 0.00 | 0.00 | 0.00 | 97 | 1017.4 |
| 20260502043044 | 50 | 180 | 0.9 | 3.5 | 0.00 | 0.00 | 0.00 | 97 | 1017.4 |
| 20260502041545 | 50 | 180 | 0.9 | 3.5 | 0.00 | 0.00 | 0.00 | 97 | 1017.4 |
| 20260502040037 | 50 | 180 | 0.0 | 1.7 | 0.00 | 0.00 | 0.00 | 97 | 1017.4 |
| 20260502034544 | 49 | 180 | 0.0 | 1.7 | 0.00 | 0.00 | 0.00 | 97 | 1017.6 |
| 20260502033045 | 50 | 0 | 0.0 | 1.7 | 0.00 | 0.00 | 0.00 | 97 | 1017.7 |
| 20260502031542 | 50 | 0 | 0.0 | 0.9 | 0.00 | 0.00 | 0.00 | 97 | 1017.9 |
| 20260502030041 | 50 | 0 | 0.9 | 3.5 | 0.00 | 0.00 | 0.00 | 97 | 1018.1 |
| 20260502024542 | 50 | 180 | 1.7 | 3.5 | 0.00 | 0.00 | 0.00 | 97 | 1018.2 |
| 20260502023041 | 50 | 180 | 0.9 | 3.5 | 0.00 | 0.00 | 0.00 | 96 | 1018.3 |
| 20260502021540 | 50 | 180 | 0.0 | 1.7 | 0.00 | 0.00 | 0.00 | 96 | 1018.4 |
| 20260502020043 | 50 | 0 | 0.9 | 2.6 | 0.00 | 0.00 | 0.00 | 96 | 1018.5 |
| 20260502014551 | 50 | 180 | 0.9 | 1.7 | 0.00 | 0.00 | 0.00 | 96 | 1018.8 |
| 20260502013044 | 50 | 0 | 0.0 | 1.7 | 0.00 | 0.00 | 0.00 | 97 | 1019.0 |
| 20260502011545 | 50 | 180 | 2.6 | 4.3 | 0.00 | 0.00 | 0.00 | 97 | 1019.1 |
| 20260502010042 | 50 | 294 | 0.0 | 2.6 | 0.00 | 0.00 | 0.00 | 96 | 1019.1 |
| 20260502004539 | 49 | 294 | 0.0 | 1.7 | 0.00 | 0.00 | 0.00 | 96 | 1019.2 |
| 20260502003038 | 49 | 0 | 0.0 | 1.7 | 0.00 | 0.00 | 0.00 | 96 | 1019.3 |
| 20260502001537 | 50 | 294 | 0.0 | 1.7 | 0.00 | 0.00 | 0.00 | 96 | 1019.2 |
| 20260502000054 | 49 | 294 | 0.9 | 1.7 | 0.00 | 0.00 | 0.00 | 96 | 1019.4 |
| 20260501234543 | 48 | 0 | 0.9 | 1.7 | 0.00 | 0.00 | 0.00 | 96 | 1019.6 |
| 20260501233041 | 47 | 294 | 0.9 | 2.6 | 0.00 | 0.00 | 0.00 | 95 | 1019.6 |
| 20260501231547 | 49 | 279 | 1.7 | 2.6 | 0.00 | 0.00 | 0.00 | 94 | 1019.7 |
| 20260501230045 | 50 | 0 | 0.0 | 1.7 | 0.00 | 0.00 | 0.00 | 95 | 1019.8 |
| 20260501224537 | 50 | 248 | 0.0 | 1.7 | 0.00 | 0.00 | 0.00 | 95 | 1019.9 |
| 20260501223044 | 50 | 0 | 0.0 | 1.7 | 0.00 | 0.00 | 0.00 | 95 | 1019.9 |